Weather Service Report


145 
ASUS44 KOUN 232010
RWROK 

WEATHER ROUNDUP FOR OKLAHOMA
NATIONAL WEATHER SERVICE NORMAN OK
300 PM CDT FRI JUN 23 2017

NOTE: "FAIR" INDICATES FEW OR NO CLOUDS BELOW 12,000 FEET WITH NO
      SIGNIFICANT WEATHER AND/OR OBSTRUCTIONS TO VISIBILITY.

OKZ001>007-009>012-014-015-017-232100-
NORTHWEST OKLAHOMA AND THE PANHANDLE
  
CITY           SKY/WX    TMP DP  RH WIND       PRES   REMARKS
GAGE           SUNNY     86  48  26 NE20G29   30.02S                  
GUYMON         SUNNY     76  53  44 N16G26    30.13F                  
ENID/WOODRING  PTSUNNY   91  52  25 E20       29.87F                  
$$

OKZ016-021>023-033>039-044-045-232100-
SOUTHWEST OKLAHOMA
  
CITY           SKY/WX    TMP DP  RH WIND       PRES   REMARKS
LAWTON/REGL    SUNNY     99  71  40 NE17G23   29.85S HX 107           
LAWTON/FT SILL MOSUNNY   94  73  51 NE16G22   29.84F HX 103           
FREDERICK      CLOUDY    98  62  30 E10G17    29.81F HX  99           
CLINTON        MOSUNNY   90  63  40 NE25G33   29.95S HX  91           
HOBART         MOSUNNY   94  67  41 NE24G33   29.91R HX  97           
ALTUS AFB      CLOUDY    93  63  36 NE18G30   29.87S HX  94           
$$

OKZ018>020-024>031-232100-
CENTRAL OKLAHOMA
  
CITY           SKY/WX    TMP DP  RH WIND       PRES   REMARKS
OKLAHOMA CITY  PTSUNNY   86  70  58 NE17G26   29.92R HX  90           
OKC/WILEY POST PTSUNNY   89  67  47 NE16G25   29.92S HX  92           
OKC/TINKER AFB PTSUNNY   84  70  62 NE13      29.91R                  
STILLWATER     SUNNY     88  52  29 NE14G22   29.90F                  
GUTHRIE        SUNNY     91  60  35 NE14G25   29.91F HX  90           
$$

OKZ008-013-054>072-232100-
NORTHEAST OKLAHOMA
  
CITY           SKY/WX    TMP DP  RH WIND       PRES   REMARKS
TULSA          MOSUNNY   87  69  54 NE18G25   29.86R HX  91           
TULSA/JONES    MOSUNNY   88  68  51 N13G22    29.88R HX  91           
PONCA CITY     MOSUNNY   87  50  27 NE16      29.90F                  
BARTLESVILLE   SUNNY     87  54  32 NE8G17    29.89S                  
MUSKOGEE       CLOUDY    85  74  69 N13       29.87R HX  92           
$$

OKZ032-040>043-046>053-073>077-232100-
SOUTH CENTRAL/SOUTHEAST OKLAHOMA
  
CITY           SKY/WX    TMP DP  RH WIND       PRES   REMARKS
ARDMORE/DWNTWN CLOUDY    70  68  94 CALM      29.88R                  
MCALESTER      MOSUNNY   95  73  48 NW9       29.84R HX 104           
$$

  

Return to Home page


Western Regional Climate Center, wrcc@dri.edu